Regional Weather Roundup
Issued by NWS

Home | Current Version | Previous Version | Graphics & Text | Print | Product List | Glossary On
Versions: 1 2 3 4 5 6 7 8 9 10 11 12 13 14 15 16 17 18 19 20 21 22 23 24 25 26 27 28 29 30 31 32 33 34 35 36 37 38 39 40 41 42 43 44 45 46 47 48 49 50
948
ASUS43 KFSD 230702
RWRSD

WEATHER ROUNDUP FOR SOUTH DAKOTA
NATIONAL WEATHER SERVICE SIOUX FALLS SD
200 AM CDT SAT SEP 23 2017

NOTE: "FAIR" INDICATES FEW OR NO CLOUDS BELOW 12,000 FEET WITH NO
SIGNIFICANT WEATHER AND/OR OBSTRUCTIONS TO VISIBILITY.


SDZ001>005-009-010-012>017-230800-
NORTHWEST AND NORTH CENTRAL SOUTH DAKOTA

CITY           SKY/WX    TMP DP  RH WIND       PRES   REMARKS
BUFFALO          N/A     43  40  89 N15       29.95F
FAITH            N/A     45  44  97 NE18      29.93F
MOBRIDGE       CLOUDY    52  46  80 N16G25    29.93R
$$

SDZ012>016-024>037-041>051-057-063-072>074-230800-
SOUTHWEST AND SOUTH CENTRAL SOUTH DAKOTA

CITY           SKY/WX    TMP DP  RH WIND       PRES   REMARKS
RAPID CTY ARPT NOT AVBL
PIERRE         CLOUDY    51  46  83 NW15      29.98R
CUSTER         LGT RAIN  43  41  93 SW9G23    30.01R
ELLSWORTH AFB  LGT RAIN  43  43 100 NW10      30.00
PHILIP         LGT RAIN  49  43  80 NE9       30.01R
PINE RIDGE     CLEAR     45  40  82 NE9       30.01R
SPEARFISH      CLOUDY    41  41 100 NW5       30.03R
WINNER         CLOUDY    53  48  83 NW14      29.98R
$$

SDZ004>011-016>023-039-040-230800-
NORTHEAST SOUTH DAKOTA

CITY           SKY/WX    TMP DP  RH WIND       PRES   REMARKS
ABERDEEN       CLOUDY    55  51  86 N15       29.91R
WATERTOWN      LGT RAIN  58  58 100 NW16      29.88R
BROOKINGS      MOCLDY    61  59  93 NW6       29.87R
SISSETON         N/A     57  55  93 NW8       29.87R
$$

SDZ017-020-022-023-036>040-048>070-230800-
SOUTHEAST SOUTH DAKOTA

CITY           SKY/WX    TMP DP  RH WIND       PRES   REMARKS
SIOUX FALLS    PTCLDY    67  64  90 NW3       29.86R
HURON          CLOUDY    54  52  93 NW10      29.89R
CHAMBERLAIN    CLOUDY    55  51  89 W15       29.94R
MITCHELL       CLOUDY    57  54  89 NW10      29.91R
YANKTON        PTCLDY    63  59  87 NW9       29.87R
$$

ABBREVIATIONS USED IN REMARKS
   TC - TEMPERATURE IN CELSIUS
  WCI - WIND CHILL INDEX
   HX - HEAT INDEX
  VSB - VISIBILITY





USA.gov is the U.S. government's official web portal to all federal, state and local government web resources and services.